Flag for Ukraine Weather past 2 weeks in Kryvyi Rih, Ukraine

Now
57 °F

Clear.


Feels Like: 57 °F
Forecast: 44 / 77 °F
Wind: 3 mph from West

Location: Krivyy Rih / Dnipropetrovs'k

Current Time: Apr 27, 2015 at 11:56:28 PM

Latest Report: Apr 27, 2015 at 11:00 PM


Visibility: 10 mi

Pressure: 29.98 "Hg

Humidity: 55%

Dew point: 41 °F

Location of Kryvyi RihLocation

Historic Weather in Kryvyi Rih — Graph

°F

Kryvyi Rih temperature yesterday

Maximum temperature yesterday: 68 °F (at 2:00 PM)
Minimum temperature yesterday: 34 °F (at 11:00 PM)
Average temperature yesterday: 54 °F

Past Weeks' High & Low Weather Summary

 TemperatureHumidityPressure
High73 °F (Apr 16, 3:00 PM)100% (Apr 27, 5:00 AM)30.12 "Hg (Apr 27, 5:00 AM)
Low32 °F (Apr 15, 4:00 AM)25% (Apr 24, 5:00 PM)29.50 "Hg (Apr 20, 4:00 PM)
Average50 °F62%29.89 "Hg
* Reported Apr 12 10:00 PM — Apr 27 10:30 PM, Kryvyi Rih, Weather by CustomWeather, © 2015

Note: Actual official high and low records may vary slightly from our data, if they occured in-between our weather recording intervals... More about our weather records

Advertising

Kryvyi Rih weather history for previous 24 hours

 ConditionsComfort  
Time TempWeatherWind HumidityBarometerVisibility
10:30 PM
Mon, Apr 27
57 °FClear.1 mph55%29.98 "Hg10 mi
10:00 PM57 °FClear.3 mph55%29.98 "Hg10 mi
9:30 PM61 °FClear.6 mph48%29.98 "Hg10 mi
9:00 PM61 °FClear.6 mph48%29.98 "Hg10 mi
8:30 PM63 °FSunny.3 mph49%29.95 "Hg10 mi
8:00 PM63 °FSunny.3 mph49%29.95 "Hg10 mi
7:30 PM68 °FSunny.8 mph40%29.95 "Hg10 mi
7:00 PM68 °FPassing clouds.8 mph40%29.95 "HgN/A
6:30 PM70 °FPassing clouds.13 mph38%29.95 "HgN/A
6:00 PM70 °FPassing clouds.10 mph38%29.95 "HgN/A
5:30 PM72 °FScattered clouds.15 mph33%29.95 "HgN/A
5:00 PM72 °FScattered clouds.13 mph33%29.95 "HgN/A
4:30 PM72 °FScattered clouds.13 mph33%29.98 "HgN/A
4:00 PM72 °FScattered clouds.13 mph33%29.98 "HgN/A
3:30 PM72 °FScattered clouds.10 mph33%29.98 "HgN/A
3:00 PM72 °FPassing clouds.13 mph33%29.98 "HgN/A
2:30 PM72 °FPassing clouds.15 mph36%29.98 "HgN/A
2:00 PM72 °FPassing clouds.15 mph36%30.01 "HgN/A
1:30 PM70 °FPassing clouds.15 mph38%30.01 "HgN/A
1:00 PM70 °FPassing clouds.15 mph38%30.01 "HgN/A
12:30 PM66 °FPassing clouds.13 mph46%30.01 "HgN/A
12:00 PM66 °FPassing clouds.13 mph46%30.01 "HgN/A
11:30 AM64 °FPassing clouds.10 mph49%30.01 "HgN/A
11:00 AM64 °FPassing clouds.8 mph49%30.01 "HgN/A
10:30 AM61 °FPassing clouds.8 mph63%30.01 "HgN/A
10:00 AM61 °FPassing clouds.6 mph63%30.01 "HgN/A
9:30 AM54 °FSunny.8 mph77%30.01 "Hg10 mi
9:00 AM54 °FSunny.8 mph77%30.01 "Hg10 mi
8:30 AM48 °FSunny.6 mph94%30.01 "Hg10 mi
8:00 AM48 °FSunny.6 mph94%30.01 "Hg10 mi
7:30 AM46 °FFog.8 mph100%30.01 "Hg0 mi
7:00 AM46 °FFog.6 mph100%30.01 "Hg3 mi
6:30 AM43 °FFog.6 mph100%30.01 "Hg1 mi
6:00 AM43 °FQuite cool.3 mph100%29.98 "Hg1 mi
5:30 AM43 °FFog.6 mph100%29.98 "Hg0 mi
5:00 AM43 °FFog.6 mph100%29.98 "Hg0 mi
4:30 AM43 °FFog.6 mph93%29.98 "Hg3 mi
4:00 AM43 °FClear.6 mph93%29.98 "Hg10 mi
3:30 AM45 °FClear.6 mph93%29.98 "Hg10 mi
3:00 AM45 °FClear.6 mph93%29.98 "Hg10 mi
2:30 AM46 °FClear.6 mph87%29.98 "Hg10 mi
2:00 AM46 °FClear.8 mph87%29.98 "Hg10 mi
1:30 AM46 °FClear.8 mph82%29.98 "Hg10 mi
1:00 AM46 °FClear.6 mph82%30.01 "Hg10 mi
12:30 AM48 °FClear.8 mph82%30.01 "Hg10 mi
12:00 AM48 °FClear.8 mph82%29.98 "Hg10 mi
11:30 PM
Sun, Apr 26
52 °FClear.8 mph67%29.98 "Hg10 mi
11:00 PM34 °FClear.8 mph70%29.98 "Hg10 mi
Weather by CustomWeather, © 2015

See weather overviewHow to use our weather pages